FW9355 Weather Reports


Display with metric or nautical units.
time (UTC)temp
F
wind
direction
speed
MPH
gust
MPH
rain 1hr
in
rain 24hr
in
rain mn
in
humidity
%
barometer
mb
20260906044104 74 0 1.0 8.0 0.00 0.04 0.00 86 1014.7
20260906043601 74 43 1.0 8.0 0.00 0.04 0.00 86 1014.8
20260906043103 74 40 1.0 8.0 0.00 0.04 0.00 86 1015.1
20260906042601 74 30 2.0 8.0 0.00 0.04 0.00 86 1014.9
20260906042101 74 130 2.0 7.0 0.00 0.04 0.00 86 1014.9
20260906041603 74 76 0.0 8.0 0.00 0.04 0.00 86 1015.0
20260906041103 74 99 2.0 8.0 0.00 0.04 0.00 86 1014.9
20260906040603 74 0 3.0 8.0 0.00 0.04 0.00 86 1014.7
20260906040139 74 128 2.0 7.0 0.00 0.04 0.00 86 1014.6
20260906035603 75 61 1.0 4.0 0.00 0.04 0.04 86 1014.7
20260906035104 75 0 1.0 4.0 0.00 0.04 0.04 86 1014.7
20260906034607 75 71 1.0 6.0 0.00 0.04 0.04 86 1014.5
20260906034101 75 137 1.0 6.0 0.00 0.04 0.04 86 1014.5
20260906033601 75 0 1.0 6.0 0.00 0.04 0.04 86 1014.6
20260906033104 75 138 2.0 6.0 0.00 0.04 0.04 86 1014.6
20260906032603 75 126 1.0 8.0 0.00 0.04 0.04 85 1014.7
20260906032102 75 152 2.0 12.0 0.00 0.04 0.04 85 1014.6
20260906031607 75 125 2.0 12.0 0.00 0.04 0.04 85 1014.5
20260906031104 75 69 3.0 11.0 0.00 0.04 0.04 85 1014.3
20260906030605 75 90 3.0 8.0 0.00 0.04 0.04 85 1014.4
20260906030111 75 0 3.0 8.0 0.00 0.04 0.04 85 1014.4
20260906025601 75 147 3.0 7.0 0.00 0.04 0.04 85 1014.3
20260906025105 76 128 2.0 7.0 0.00 0.04 0.04 85 1014.2
20260906024609 76 140 2.0 8.0 0.00 0.04 0.04 85 1014.2
20260906024101 76 134 4.0 8.0 0.00 0.04 0.04 84 1014.3
20260906023603 76 130 2.0 9.0 0.00 0.04 0.04 85 1014.2
20260906023104 76 159 3.0 10.0 0.00 0.04 0.04 85 1014.3
20260906022601 76 133 4.0 12.0 0.00 0.04 0.04 85 1014.3
20260906022102 76 144 3.0 12.0 0.00 0.04 0.04 85 1014.1
20260906021620 76 136 4.0 8.0 0.00 0.04 0.04 85 1014.0
20260906021102 76 126 1.0 7.0 0.00 0.04 0.04 84 1014.0
20260906020602 77 126 2.0 8.0 0.00 0.04 0.04 84 1014.1
20260906020117 77 146 3.0 8.0 0.00 0.04 0.04 84 1014.1
20260906015601 77 131 2.0 9.0 0.00 0.04 0.04 84 1013.8
20260906015101 77 144 2.0 10.0 0.00 0.04 0.04 83 1013.7
20260906014627 77 20 5.0 10.0 0.00 0.04 0.04 83 1013.8
20260906014104 77 167 1.0 8.0 0.00 0.04 0.04 82 1013.8
20260906013601 77 137 1.0 8.0 0.00 0.04 0.04 82 1013.7
20260906013125 77 113 1.0 7.0 0.00 0.04 0.04 81 1013.4
20260906012604 76 148 1.0 5.0 0.00 0.04 0.04 81 1013.1
20260906012101 76 0 0.0 0.0 0.00 0.04 0.04 80 1013.0
20260906011624 76 0 0.0 0.0 0.00 0.04 0.04 80 1012.9
20260906011105 76 0 0.0 0.0 0.00 0.04 0.04 79 1013.1
20260906010601 76 0 0.0 0.0 0.00 0.04 0.04 79 1013.1
20260906010127 76 0 0.0 0.0 0.00 0.04 0.04 79 1013.0
20260906005601 76 0 0.0 0.0 0.00 0.04 0.04 78 1012.8
20260906005101 77 0 0.0 0.0 0.00 0.04 0.04 78 1012.9
20260906004623 77 0 0.0 0.0 0.00 0.04 0.04 78 1013.0
20260906004102 77 0 0.0 0.0 0.00 0.04 0.04 78 1013.0
20260906003603 77 0 0.0 0.0 0.00 0.04 0.04 77 1012.8
20260906003121 77 0 0.0 0.0 0.00 0.04 0.04 76 1012.6
20260906002601 77 0 0.0 0.0 0.00 0.04 0.04 76 1012.5
20260906002101 77 0 0.0 0.0 0.00 0.04 0.04 76 1012.4
20260906001624 77 0 0.0 0.0 0.00 0.04 0.04 76 1012.4
20260906001059 77 0 0.0 2.0 0.00 0.04 0.04 75 1012.4
20260906000601 78 0 0.0 3.0 0.00 0.04 0.04 75 1012.4
20260906000115 78 352 0.0 4.0 0.00 0.04 0.04 74 1012.4
20260905235606 79 352 2.0 4.0 0.00 0.04 0.04 73 1012.4
20260905235105 79 360 0.0 3.0 0.00 0.04 0.04 72 1012.5
20260905234613 79 5 1.0 3.0 0.00 0.04 0.04 70 1012.5
20260905234105 79 123 0.0 3.0 0.00 0.04 0.04 70 1012.5
20260905233603 79 0 0.0 3.0 0.00 0.04 0.04 71 1012.5
20260905233118 80 123 1.0 4.0 0.00 0.04 0.04 70 1012.5
20260905232601 80 128 1.0 4.0 0.00 0.04 0.04 70 1012.8
20260905232101 80 105 1.0 5.0 0.00 0.04 0.04 70 1013.0
20260905231608 80 62 1.0 5.0 0.00 0.04 0.04 70 1012.7
20260905231100 80 327 2.0 5.0 0.00 0.04 0.04 70 1012.7
20260905230559 80 101 1.0 7.0 0.00 0.04 0.04 69 1012.9
20260905230111 80 41 3.0 7.0 0.00 0.04 0.04 69 1012.8
20260905225559 81 21 2.0 8.0 0.00 0.04 0.04 71 1013.1
20260905225101 81 23 2.0 8.0 0.00 0.04 0.04 71 1012.9
20260905224613 82 59 2.0 9.0 0.00 0.04 0.04 70 1012.9
20260905224057 82 30 3.0 10.0 0.00 0.04 0.04 70 1012.6
20260905223559 83 29 3.0 10.0 0.00 0.04 0.04 69 1012.4
20260905223105 84 84 4.0 13.0 0.00 0.04 0.04 67 1012.2
20260905222600 85 123 4.0 13.0 0.00 0.04 0.04 65 1012.1
20260905222059 88 5 5.0 13.0 0.00 0.04 0.04 62 1012.1
20260905221603 90 311 5.0 11.0 0.00 0.04 0.04 63 1011.9
20260905221100 90 312 6.0 13.0 0.00 0.04 0.04 63 1011.6
20260905220559 90 323 9.0 13.0 0.00 0.04 0.04 63 1011.6
20260905220105 90 313 5.0 12.0 0.00 0.04 0.04 63 1011.9
20260905215559 90 294 6.0 11.0 0.00 0.04 0.04 62 1012.2
20260905215059 90 286 4.0 9.0 0.00 0.04 0.04 62 1012.0
20260905214608 90 287 4.0 10.0 0.00 0.04 0.04 63 1012.0
20260905214100 90 319 5.0 10.0 0.00 0.04 0.04 63 1011.8
20260905213559 90 308 3.0 11.0 0.00 0.04 0.04 63 1011.4
20260905213110 90 325 5.0 11.0 0.00 0.04 0.04 64 1011.6
20260905212559 89 318 4.0 10.0 0.00 0.04 0.04 65 1012.0
20260905212059 89 322 4.0 9.0 0.00 0.04 0.04 65 1012.0
20260905211601 89 329 3.0 9.0 0.00 0.04 0.04 64 1011.8
20260905211059 89 311 4.0 6.0 0.00 0.04 0.04 64 1011.8
20260905210559 89 352 3.0 11.0 0.00 0.04 0.04 64 1011.9
20260905210116 89 352 4.0 11.0 0.00 0.04 0.04 63 1012.1
20260905205559 90 311 5.0 8.0 0.00 0.04 0.04 63 1012.1
20260905205101 90 331 4.0 9.0 0.00 0.04 0.04 63 1012.2
20260905204605 89 321 3.0 9.0 0.00 0.04 0.04 65 1012.2
20260905204059 89 326 3.0 12.0 0.00 0.04 0.04 63 1012.3
20260905203559 89 308 3.0 12.0 0.00 0.04 0.04 63 1012.3
20260905203108 89 310 5.0 10.0 0.00 0.04 0.04 62 1012.4
20260905202558 90 296 5.0 10.0 0.00 0.04 0.04 61 1012.3
20260905202058 91 333 6.0 10.0 0.00 0.04 0.04 60 1012.4
20260905201610 92 329 3.0 11.0 0.00 0.04 0.04 60 1012.4
20260905201101 92 328 4.0 12.0 0.00 0.04 0.04 60 1012.5
20260905200601 92 304 7.0 12.0 0.00 0.04 0.04 59 1012.5
20260905200147 92 339 3.0 11.0 0.00 0.04 0.04 60 1012.5
20260905195603 92 19 6.0 11.0 0.00 0.04 0.04 60 1012.5
20260905195101 92 334 5.0 11.0 0.00 0.04 0.04 61 1012.4
20260905194623 91 262 4.0 9.0 0.00 0.04 0.04 60 1012.5
20260905194101 92 307 4.0 11.0 0.00 0.04 0.04 59 1012.6
20260905193603 92 312 2.0 11.0 0.00 0.04 0.04 60 1012.5
20260905193106 91 319 3.0 12.0 0.00 0.04 0.04 60 1012.7
20260905192602 91 332 5.0 12.0 0.00 0.04 0.04 60 1012.8
20260905192059 92 291 6.0 12.0 0.00 0.04 0.04 59 1012.8
20260905191605 92 263 3.0 10.0 0.00 0.04 0.04 58 1012.9
20260905191104 91 315 5.0 10.0 0.00 0.04 0.04 59 1012.9
20260905190602 91 308 3.0 7.0 0.00 0.04 0.04 58 1012.9
20260905190107 91 286 2.0 8.0 0.00 0.04 0.04 58 1013.1
20260905185600 91 286 3.0 10.0 0.00 0.04 0.04 58 1013.1
20260905185102 91 300 2.0 10.0 0.00 0.04 0.04 60 1013.2
20260905184612 91 301 6.0 10.0 0.00 0.04 0.04 59 1013.2
20260905184102 91 290 4.0 10.0 0.00 0.04 0.04 60 1013.3
20260905183603 91 296 4.0 11.0 0.00 0.04 0.04 60 1013.5
20260905183112 90 309 3.0 11.0 0.00 0.04 0.04 59 1013.5
20260905182601 90 252 4.0 9.0 0.00 0.04 0.04 58 1013.6
20260905182101 91 314 5.0 9.0 0.00 0.04 0.04 58 1013.7
20260905181607 91 0 2.0 8.0 0.00 0.04 0.04 59 1013.6
20260905181102 90 310 3.0 8.0 0.00 0.04 0.04 60 1013.7
20260905180601 91 291 1.0 6.0 0.00 0.04 0.04 58 1013.6
20260905180108 90 306 1.0 8.0 0.00 0.04 0.04 59 1013.7
20260905175601 90 152 1.0 8.0 0.00 0.04 0.04 60 1013.7
20260905175101 89 277 3.0 8.0 0.00 0.04 0.04 60 1013.7
20260905174607 89 288 1.0 8.0 0.00 0.04 0.04 60 1013.8
20260905174101 88 300 2.0 7.0 0.00 0.04 0.04 61 1013.9
20260905173601 88 262 1.0 5.0 0.00 0.04 0.04 62 1014.0
20260905173105 87 125 2.0 5.0 0.00 0.04 0.04 63 1014.1
20260905172601 87 225 1.0 8.0 0.00 0.04 0.04 61 1013.9
20260905172102 87 268 2.0 8.0 0.00 0.04 0.04 63 1014.1
20260905171607 87 171 3.0 8.0 0.00 0.04 0.04 62 1014.1
20260905171117 86 169 2.0 8.0 0.00 0.04 0.04 64 1014.2
20260905170601 85 197 2.0 8.0 0.00 0.04 0.04 63 1014.3
20260905170109 85 144 1.0 9.0 0.00 0.04 0.04 64 1014.5
20260905165600 85 284 1.0 9.0 0.00 0.04 0.04 64 1014.5
20260905165105 84 165 2.0 6.0 0.00 0.04 0.04 65 1014.6
20260905164606 84 161 1.0 6.0 0.04 0.04 0.04 69 1014.5
20260905164101 83 153 2.0 7.0 0.04 0.04 0.04 70 1014.6
20260905163600 82 163 3.0 7.0 0.04 0.04 0.04 74 1014.7
20260905163109 80 178 1.0 7.0 0.04 0.04 0.04 79 1014.9
20260905162601 78 104 0.0 4.0 0.04 0.04 0.04 81 1014.7
20260905162102 77 93 0.0 3.0 0.04 0.04 0.04 81 1014.9
20260905161615 77 82 0.0 3.0 0.04 0.04 0.04 83 1014.9
20260905161101 76 78 0.0 3.0 0.04 0.04 0.04 81 1015.1
20260905160603 77 350 1.0 3.0 0.04 0.04 0.04 79 1015.0
20260905160110 78 344 1.0 3.0 0.04 0.04 0.04 74 1015.1
20260905155600 80 344 0.0 3.0 0.04 0.04 0.04 70 1015.2
20260905155100 81 344 1.0 9.0 0.04 0.04 0.04 66 1015.4
20260905154606 83 344 1.0 9.0 0.00 0.00 0.00 64 1015.3
20260905154103 84 183 2.0 7.0 0.00 0.00 0.00 63 1015.1
20260905153600 84 277 3.0 7.0 0.00 0.00 0.00 63 1015.1
20260905153106 83 229 2.0 7.0 0.00 0.00 0.00 66 1014.7
20260905152601 82 177 2.0 7.0 0.00 0.00 0.00 66 1015.0
20260905152101 82 166 2.0 8.0 0.00 0.00 0.00 65 1015.1
20260905151610 81 164 2.0 8.0 0.00 0.00 0.00 67 1015.0
20260905151101 81 163 3.0 10.0 0.00 0.00 0.00 67 1015.2
20260905150600 81 131 3.0 10.0 0.00 0.00 0.00 67 1015.0
20260905150106 80 175 2.0 9.0 0.00 0.00 0.00 68 1015.0
20260905145602 80 284 3.0 10.0 0.00 0.00 0.00 68 1014.9
20260905145100 80 135 4.0 10.0 0.00 0.00 0.00 68 1015.0
20260905144603 80 159 2.0 9.0 0.00 0.00 0.00 69 1015.0
20260905144100 79 139 3.0 8.0 0.00 0.00 0.00 70 1015.0
20260905143601 79 145 3.0 8.0 0.00 0.00 0.00 70 1015.1
20260905143105 78 168 3.0 9.0 0.00 0.00 0.00 71 1015.0
20260905142603 78 163 2.0 10.0 0.00 0.00 0.00 72 1015.0
20260905142100 77 169 3.0 10.0 0.00 0.00 0.00 72 1014.9
20260905141603 77 157 3.0 9.0 0.00 0.00 0.00 71 1015.1
20260905141100 77 161 4.0 10.0 0.00 0.00 0.00 71 1015.1
20260905140602 77 137 4.0 10.0 0.00 0.00 0.00 71 1015.3
20260905140105 77 169 2.0 9.0 0.00 0.00 0.00 72 1015.3
20260905135558 77 142 2.0 10.0 0.00 0.00 0.00 73 1015.1
20260905135101 76 117 3.0 10.0 0.00 0.00 0.00 73 1015.3
20260905134620 76 75 3.0 9.0 0.00 0.00 0.00 74 1015.3
20260905134101 76 155 2.0 9.0 0.00 0.00 0.00 74 1015.4
20260905133600 75 139 2.0 11.0 0.00 0.00 0.00 75 1015.4
20260905133106 74 180 3.0 11.0 0.00 0.00 0.00 75 1015.4
20260905132602 74 150 2.0 7.0 0.00 0.00 0.00 76 1015.5
20260905132101 74 167 3.0 6.0 0.00 0.00 0.00 75 1015.5
20260905131611 74 146 0.0 8.0 0.00 0.00 0.00 77 1015.5
20260905131100 74 125 2.0 8.0 0.00 0.00 0.00 77 1015.7
20260905130602 74 174 2.0 7.0 0.00 0.00 0.00 76 1015.6
20260905130110 74 169 3.0 7.0 0.00 0.00 0.00 76 1015.4
20260905125604 73 136 2.0 11.0 0.00 0.00 0.00 77 1015.4
20260905125100 73 211 3.0 11.0 0.00 0.00 0.00 77 1015.4
20260905124613 73 160 2.0 6.0 0.00 0.00 0.00 77 1015.2
20260905124104 73 166 2.0 8.0 0.00 0.00 0.00 77 1015.1
20260905123602 73 168 3.0 9.0 0.00 0.00 0.00 77 1015.2
20260905123109 73 162 1.0 9.0 0.00 0.00 0.00 78 1015.2
20260905122603 72 88 1.0 9.0 0.00 0.00 0.00 78 1015.2
20260905122101 72 0 1.0 9.0 0.00 0.00 0.00 79 1015.1
20260905121605 72 126 3.0 9.0 0.00 0.00 0.00 79 1015.0
20260905121100 71 169 2.0 8.0 0.00 0.00 0.00 80 1015.1
20260905120601 71 127 3.0 10.0 0.00 0.00 0.00 80 1015.1
20260905120104 71 163 3.0 10.0 0.00 0.00 0.00 80 1015.2
20260905115600 71 129 3.0 8.0 0.00 0.00 0.00 80 1015.2
20260905115102 71 173 2.0 8.0 0.00 0.00 0.00 80 1015.1
20260905114612 71 120 3.0 8.0 0.00 0.00 0.00 80 1015.1
20260905114103 71 148 3.0 9.0 0.00 0.00 0.00 80 1015.2
20260905113601 71 101 2.0 9.0 0.00 0.00 0.00 80 1015.1
20260905113109 71 127 3.0 10.0 0.00 0.00 0.00 80 1015.1
20260905112604 71 133 2.0 10.0 0.00 0.00 0.00 80 1015.1
20260905112101 71 171 4.0 10.0 0.00 0.00 0.00 80 1015.2
20260905111615 71 119 3.0 10.0 0.00 0.00 0.00 80 1015.2
20260905111059 71 105 3.0 9.0 0.00 0.00 0.00 80 1015.1
20260905110604 71 177 3.0 8.0 0.00 0.00 0.00 80 1015.0
20260905110106 72 0 2.0 13.0 0.00 0.00 0.00 80 1015.0
20260905105600 72 182 3.0 13.0 0.00 0.00 0.00 80 1015.0
20260905105059 72 129 5.0 12.0 0.00 0.00 0.00 80 1015.0
20260905104607 72 109 6.0 12.0 0.00 0.00 0.00 80 1015.1
20260905104100 72 192 5.0 13.0 0.00 0.00 0.00 80 1015.1
20260905103600 72 150 6.0 13.0 0.00 0.00 0.00 81 1015.0
20260905103104 72 120 6.0 17.0 0.00 0.00 0.00 82 1015.1
20260905102600 72 138 6.0 17.0 0.00 0.00 0.00 84 1015.2
20260905102103 72 88 8.0 17.0 0.00 0.00 0.00 85 1015.0
20260905101608 74 116 5.0 15.0 0.00 0.00 0.00 88 1014.9
20260905101101 74 106 7.0 13.0 0.00 0.00 0.00 88 1014.6
20260905100601 75 135 3.0 9.0 0.00 0.00 0.00 89 1014.4
20260905100108 75 0 0.0 0.0 0.00 0.00 0.00 89 1014.0
20260905095600 75 0 0.0 0.0 0.00 0.00 0.00 89 1013.9
20260905095102 75 0 0.0 0.0 0.00 0.00 0.00 89 1013.7
20260905094612 75 0 0.0 0.0 0.00 0.00 0.00 89 1013.9
20260905094100 75 0 0.0 0.0 0.00 0.00 0.00 89 1013.9
20260905093600 74 0 0.0 0.0 0.00 0.00 0.00 88 1013.7
20260905093124 74 0 0.0 0.0 0.00 0.00 0.00 88 1013.9
20260905092601 75 0 0.0 0.0 0.00 0.00 0.00 88 1013.8
20260905092100 75 0 0.0 0.0 0.00 0.00 0.00 88 1013.6
20260905091610 75 0 0.0 0.0 0.00 0.00 0.00 88 1013.7
20260905091101 75 0 0.0 0.0 0.00 0.00 0.00 88 1013.7
20260905090600 75 0 0.0 0.0 0.00 0.00 0.00 88 1013.7
20260905090105 75 0 0.0 0.0 0.00 0.00 0.00 88 1013.7
20260905085601 75 0 0.0 0.0 0.00 0.00 0.00 87 1013.7
20260905085104 75 0 0.0 0.0 0.00 0.00 0.00 87 1013.6
20260905084609 75 0 0.0 0.0 0.00 0.00 0.00 87 1013.8
20260905084100 75 0 0.0 0.0 0.00 0.00 0.00 87 1013.7
20260905083600 75 0 0.0 0.0 0.00 0.00 0.00 87 1013.8
20260905083110 75 0 0.0 0.0 0.00 0.00 0.00 87 1013.7
20260905082600 75 0 0.0 0.0 0.00 0.00 0.00 87 1013.7
20260905082100 76 0 0.0 0.0 0.00 0.00 0.00 86 1013.6
20260905081620 76 0 0.0 0.0 0.00 0.00 0.00 86 1013.6
20260905081100 76 0 0.0 0.0 0.00 0.00 0.00 86 1013.6
20260905080600 76 0 0.0 0.0 0.00 0.00 0.00 86 1013.5
20260905080112 76 0 0.0 0.0 0.00 0.00 0.00 86 1013.6
20260905075604 76 0 0.0 0.0 0.00 0.00 0.00 86 1013.6
20260905075100 76 0 0.0 0.0 0.00 0.00 0.00 86 1013.4
20260905074605 76 0 0.0 0.0 0.00 0.00 0.00 85 1013.3
20260905074101 76 0 0.0 0.0 0.00 0.00 0.00 85 1013.3
20260905073603 76 0 0.0 0.0 0.00 0.00 0.00 85 1013.1
20260905073104 76 0 0.0 0.0 0.00 0.00 0.00 85 1013.1
20260905072601 76 0 0.0 0.0 0.00 0.00 0.00 85 1013.0
20260905072100 76 0 0.0 0.0 0.00 0.00 0.00 85 1012.9
20260905071626 76 0 0.0 0.0 0.00 0.00 0.00 85 1012.8
20260905071102 76 0 0.0 0.0 0.00 0.00 0.00 85 1012.9
20260905070600 76 0 0.0 0.0 0.00 0.00 0.00 85 1013.0
20260905070109 76 0 0.0 0.0 0.00 0.00 0.00 85 1013.0
20260905065602 76 0 0.0 0.0 0.00 0.00 0.00 85 1013.1
20260905065059 76 0 0.0 0.0 0.00 0.00 0.00 85 1013.0
20260905064604 76 0 0.0 0.0 0.00 0.00 0.00 85 1013.1
20260905064101 76 0 0.0 0.0 0.00 0.00 0.00 84 1013.2
20260905063600 76 0 0.0 0.0 0.00 0.00 0.00 84 1013.3
20260905063118 76 0 0.0 0.0 0.00 0.00 0.00 84 1013.4
20260905062601 76 0 0.0 0.0 0.00 0.00 0.00 84 1013.3
20260905062100 76 0 0.0 0.0 0.00 0.00 0.00 84 1013.5
20260905061627 76 0 0.0 0.0 0.00 0.00 0.00 84 1013.7
20260905061059 76 0 0.0 0.0 0.00 0.00 0.00 84 1013.6
20260905060601 76 0 0.0 0.0 0.00 0.00 0.00 84 1013.7
20260905060107 77 0 0.0 0.0 0.00 0.00 0.00 83 1013.7
20260905055559 77 0 0.0 0.0 0.00 0.00 0.00 83 1013.8
20260905055100 77 0 0.0 0.0 0.00 0.00 0.00 83 1013.8
20260905054606 77 0 0.0 0.0 0.00 0.00 0.00 83 1013.9
20260905054100 77 0 0.0 0.0 0.00 0.00 0.00 83 1013.7
20260905053600 77 0 0.0 0.0 0.00 0.00 0.00 83 1013.7
20260905053103 77 0 0.0 0.0 0.00 0.00 0.00 83 1013.9
20260905052601 77 0 0.0 0.0 0.00 0.00 0.00 83 1014.0
20260905052102 77 0 0.0 0.0 0.00 0.00 0.00 82 1014.0
20260905051605 77 0 0.0 0.0 0.00 0.00 0.00 82 1014.1
20260905051100 77 0 0.0 0.0 0.00 0.00 0.00 82 1014.1
20260905050600 77 0 0.0 0.0 0.00 0.00 0.00 82 1014.2
20260905050119 77 0 0.0 0.0 0.00 0.00 0.00 82 1014.1
20260905045603 77 0 0.0 0.0 0.00 0.00 0.00 82 1014.2
20260905045101 77 0 0.0 0.0 0.00 0.00 0.00 82 1014.2
20260905044607 77 0 0.0 0.0 0.00 0.00 0.00 82 1014.1